Location: Zagreb
(45.8000°N, 16.0000°E)
Time: 16:02:12
(UTC+02:00)

Envisat - Pass Details

Date: 04 July 2022
Orbit: 763 x 765 km, 98.2° (Epoch: 16 August)

Event Time Altitude Azimuth Distance (km) Brightness Sun altitude
Rises 04:13:53 0° 29° (NNE) 3,242 8.0 -8.5°
Reaches altitude 10° 04:17:02 10° 49° (NE) 2,309 7.2 -8.1°
Maximum altitude 04:20:19 17° 90° (E) 1,861 5.7 -7.7°
Drops below altitude 10° 04:23:34 10° 130° (SE) 2,297 5.6 -7.3°
Sets 04:26:40 0° 150° (SSE) 3,217 6.1 -6.9°
